Location: Aulus
(42.7909°N, 1.3399°E)
Time: 22:24:20
(UTC+00:00)

Alouette 2 Rocket - Pass Details

Date: 19 May 2025
Orbit: 501 x 2618 km, 79.8° (Epoch: 11 June)

Event Time Altitude Azimuth Distance (km) Brightness Sun altitude
Rises 19:52:08 0° 355° (N) 2,615 7.4 -6.6°
Reaches altitude 10° 19:54:09 10° 2° (N) 1,767 6.4 -6.9°
Maximum altitude 19:57:43 45° 77° (ENE) 811 3.9 -7.5°
Drops below altitude 10° 20:02:15 10° 150° (SSE) 2,247 5.9 -8.1°
Enters shadow 20:02:57 - 152° (SSE) 2,542 6.1 -8.2°
